User: anonymous   Login
Location: Cronhütte
(48.9135°N, 9.6869°E)
Time: 14:06:20
(UTC+00:00)
Language:

Meteor 1-28 Rocket - Orbit

View from above orbital plane
View from above orbital plane
View from above satellite
View from above satellite

Ground track
Ground track

The orbit data is extracted from the following two-line orbital elements,

1 10114U 77057B   24196.13921801  .00009312  00000-0  33873-3 0  9992
2 10114  97.5126 340.6734 0009197 285.8208  74.2017 15.28430894575816
Epoch (UTC): 14 July 2024 03:20:28
Eccentricity: 0.0009197
inclination: 97.5126°
perigee height: 474 km
apogee height: 487 km
right ascension of ascending node: 340.6734°
argument of perigee: 285.8208°
revolutions per day: 15.28430894
mean anomaly at epoch: 74.2017°
orbit number at epoch: 57581

The dashed part of the orbit path shows where the satellite is in the earth's shadow,  

DLR